User: anonymous   Login
Location: 5810 Zion Rd, Cleves, OH 45002, USA
(39.1922°N, 84.7113°W)
Time: 08:37:23
(UTC-05:00)
Language:

AO-85 - Orbit

View from above orbital plane
View from above orbital plane
View from above satellite
View from above satellite

Ground track
Ground track

The orbit data is extracted from the following two-line orbital elements,

1 40967U 15058D   20015.10630426  .00000098  00000-0  30212-4 0  9297
2 40967  64.7727 239.4467 0175716 131.7610 229.8669 14.76053931138791
Epoch (UTC): 15 January 2020 02:33:04
Eccentricity: 0.0175716
inclination: 64.7727°
perigee height: 518 km
apogee height: 765 km
right ascension of ascending node: 239.4467°
argument of perigee: 131.7610°
revolutions per day: 14.76053931
mean anomaly at epoch: 229.8669°
orbit number at epoch: 13879

The dashed part of the orbit path shows where the satellite is in the earth's shadow,  

DLR